Home   Weather   Spain   Ibiza   Past weeks
Flag for Spain

Past Weather in Ibiza, Ibiza, Spain — Yesterday and Last 2 Weeks

Currently: 72 °F. Partly sunny. (Weather station: Ibiza / Es Codola, Spain). See more current weather

Past Weather in Ibiza — Graph

°F

Ibiza Temperature Yesterday

Maximum temperature yesterday: 79 °F (at 12:00 pm)
Minimum temperature yesterday: 70 °F (at 6:00 am)
Average temperature yesterday: 74 °F

High & Low Weather Summary for the Past Weeks

 TemperatureHumidityPressure
High84 °F (Jun 14, 2:30 pm)100% (Jun 6, 7:00 am)30.18 "Hg (Jun 6, 7:00 am)
Low61 °F (Jun 7, 3:00 am)37% (Jun 12, 2:30 pm)29.77 "Hg (Jun 16, 9:00 pm)
Average74 °F71%30.01 "Hg
* Reported Jun 6 7:00 am — Jun 21 7:00 am, Ibiza. Weather by CustomWeather, © 2021

Note: Actual official high and low records may vary slightly from our data, if they occured in-between our weather recording intervals... More about our weather records

Ibiza Weather History for the Previous 24 Hours

Scroll right to see more
 ConditionsComfort  
Time TempWeatherWind HumidityBarometerVisibility
7:00 am
Mon, Jun 21
70 °FPartly sunny.5 mph88%29.83 "HgN/A
6:30 am70 °FPartly sunny.8 mph88%29.83 "HgN/A
6:00 am70 °FPassing clouds.12 mph88%29.83 "HgN/A
5:30 am70 °FPassing clouds.9 mph88%29.83 "HgN/A
5:00 am70 °FPassing clouds.9 mph88%29.80 "HgN/A
4:30 am70 °FPassing clouds.7 mph88%29.83 "HgN/A
4:00 am70 °FPassing clouds.8 mph83%29.83 "HgN/A
3:30 am70 °FPassing clouds.8 mph83%29.83 "HgN/A
3:00 am70 °FPassing clouds.8 mph83%29.83 "HgN/A
2:30 am70 °FPassing clouds.9 mph83%29.83 "HgN/A
2:00 am70 °FPassing clouds.10 mph83%29.83 "HgN/A
1:30 am72 °FPassing clouds.10 mph83%29.83 "HgN/A
1:00 am70 °FPassing clouds.8 mph88%29.86 "HgN/A
12:30 am72 °FPassing clouds.9 mph78%29.86 "HgN/A
12:00 am72 °FPassing clouds.12 mph78%29.86 "HgN/A
11:30 pm
Sun, Jun 20
72 °FPassing clouds.10 mph78%29.86 "HgN/A
11:00 pm72 °FPassing clouds.10 mph78%29.86 "HgN/A
10:30 pm72 °FPassing clouds.9 mph78%29.83 "HgN/A
10:00 pm72 °FPassing clouds.10 mph83%29.83 "HgN/A
9:30 pm72 °FPassing clouds.10 mph83%29.83 "HgN/A
9:00 pm72 °FPassing clouds.12 mph78%29.83 "HgN/A
8:30 pm73 °FPassing clouds.8 mph74%29.83 "HgN/A
8:00 pm73 °FPassing clouds.13 mph74%29.83 "HgN/A
7:30 pm75 °FPassing clouds.14 mph74%29.83 "HgN/A
7:00 pm75 °FPassing clouds.13 mph74%29.83 "HgN/A
6:30 pm75 °FPassing clouds.14 mph74%29.83 "HgN/A
6:00 pm77 °FPassing clouds.15 mph69%29.83 "HgN/A
5:30 pm77 °FPassing clouds.14 mph69%29.83 "HgN/A
5:00 pm75 °FPassing clouds.14 mph74%29.83 "HgN/A
4:30 pm77 °FPassing clouds.15 mph74%29.86 "HgN/A
4:00 pm77 °FPassing clouds.16 mph74%29.86 "HgN/A
3:30 pm79 °FPassing clouds.16 mph65%29.86 "HgN/A
3:00 pm79 °FPassing clouds.14 mph70%29.86 "HgN/A
2:30 pm79 °FPassing clouds.16 mph70%29.86 "HgN/A
2:00 pm77 °FPassing clouds.15 mph74%29.86 "HgN/A
1:30 pm79 °FPassing clouds.15 mph70%29.86 "HgN/A
1:00 pm79 °FPassing clouds.15 mph65%29.86 "HgN/A
12:30 pm79 °FPassing clouds.16 mph70%29.86 "HgN/A
12:00 pm79 °FScattered clouds.16 mph65%29.86 "HgN/A
11:30 am77 °FPartly sunny.15 mph69%29.86 "HgN/A
11:00 am75 °FPartly sunny.15 mph78%29.86 "HgN/A
10:30 am75 °FPartly sunny.16 mph74%29.86 "HgN/A
10:00 am75 °FPartly sunny.16 mph78%29.86 "HgN/A
9:30 am75 °FScattered clouds.15 mph74%29.86 "HgN/A
9:00 am73 °FScattered clouds.12 mph78%29.83 "HgN/A
8:30 am72 °FBroken clouds.13 mph83%29.86 "HgN/A
8:00 am72 °FBroken clouds.14 mph83%29.86 "HgN/A
Weather by CustomWeather, © 2021

See weather overview